QPF
0.06 0.06 0.06 0.06 0.07 0.07 0.08 0.07 0.06 0.05 0.05 0.06 0.05 0.04 0.04 0.03 0.02 0.02 0.01 0.01 0.02 0.02 0.01 0.01 0.01 0.01 0.01 0.00 0.00 0.00 0.00 0.00 0.00 0.00 0.00 0.00 0.00 0.00 0.00 0.00 0.00 0.00 0.00
0.07 0.06 0.06 0.05 0.04 0.05 0.05 0.05 0.05 0.05 0.04 0.03 0.02 0.02 0.02 0.02 0.02 0.02 0.01 0.01 0.01 0.01 0.00 0.00 0.00 0.00 0.00 0.00 0.00 0.00 0.00 0.00 0.00 0.00 0.00 0.00 0.00 0.00 0.00 0.00 0.00 0.00 0.00
0.07 0.05 0.04 0.04 0.04 0.04 0.03 0.02 0.02 0.02 0.03 0.02 0.01 0.01 0.01 0.00 0.01 0.00 0.01 0.01 0.00 0.00 0.00 0.00 0.00 0.00 0.00 0.00 0.00 0.00 0.00 0.00 0.00 0.00 0.00 0.01 0.00 0.00 0.00 0.00 0.00 0.01 0.00
0.06 0.05 0.05 0.05 0.05 0.04 0.04 0.03 0.02 0.01 0.01 0.01 0.01 0.00 0.00 0.00 0.00 0.00 0.00 0.00 0.00 0.00 0.00 0.00 0.00 0.00 0.00 0.00 0.00 0.00 0.01 0.01 0.01 0.01 0.01 0.01 0.01 0.01 0.01 0.02 0.02 0.02 0.01
0.07 0.07 0.07 0.05 0.04 0.03 0.03 0.03 0.03 0.02 0.01 0.01 0.00 0.00 0.00 0.00 0.00 0.00 0.00 0.00 0.01 0.01 0.00 0.00 0.00 0.00 0.00 0.00 0.00 0.00 0.00 0.01 0.02 0.03 0.03 0.03 0.04 0.03 0.02 0.01 0.02 0.03 0.04
0.07 0.08 0.07 0.06 0.04 0.03 0.02 0.02 0.02 0.01 0.01 0.01 0.00 0.00 0.00 0.00 0.00 0.00 0.00 0.01 0.01 0.01 0.01 0.01 0.00 0.00 0.00 0.00 0.00 0.00 0.00 0.00 0.00 0.02 0.03 0.04 0.04 0.03 0.02 0.02 0.02 0.03 0.06
0.05 0.06 0.06 0.06 0.06 0.05 0.03 0.02 0.02 0.01 0.01 0.01 0.01 0.00 0.00 0.00 0.00 0.00 0.00 0.01 0.02 0.02 0.02 0.02 0.01 0.00 0.00 0.00 0.00 0.01 0.01 0.00 0.00 0.00 0.02 0.03 0.03 0.03 0.02 0.02 0.03 0.04 0.05
0.05 0.05 0.04 0.04 0.04 0.04 0.03 0.03 0.02 0.02 0.02 0.02 0.01 0.01 0.01 0.00 0.00 0.00 0.00 0.01 0.03 0.02 0.01 0.02 0.03 0.02 0.00 0.00 0.01 0.04 0.06 0.03 0.01 0.00 0.01 0.01 0.01 0.01 0.01 0.01 0.03 0.05 0.08
0.07 0.06 0.04 0.03 0.03 0.04 0.03 0.03 0.03 0.03 0.03 0.03 0.02 0.03 0.02 0.00 0.00 0.00 0.00 0.01 0.03 0.02 0.01 0.00 0.01 0.01 0.00 0.00 0.02 0.07 0.07 0.04 0.00 0.00 0.00 0.00 0.00 0.00 0.00 0.01 0.03 0.07 0.08
0.04 0.04 0.03 0.03 0.04 0.04 0.04 0.03 0.03 0.03 0.03 0.02 0.02 0.02 0.02 0.01 0.00 0.00 0.00 0.01 0.03 0.03 0.03 0.02 0.00 0.00 0.00 0.00 0.01 0.03 0.03 0.02 0.02 0.03 0.03 0.02 0.02 0.02 0.01 0.02 0.07 0.08 0.07
0.02 0.02 0.02 0.03 0.03 0.03 0.03 0.04 0.04 0.03 0.02 0.02 0.02 0.02 0.01 0.00 0.00 0.00 0.00 0.01 0.02 0.03 0.03 0.03 0.01 0.00 0.00 0.00 0.00 0.01 0.00 0.00 0.02 0.04 0.03 0.02 0.02 0.04 0.04 0.04 0.06 0.07 0.06
0.02 0.02 0.02 0.02 0.01 0.02 0.03 0.04 0.03 0.03 0.03 0.02 0.03 0.03 0.02 0.01 0.00 0.00 0.00 0.00 0.00 0.02 0.02 0.01 0.00 0.00 0.00 0.00 0.00 0.00 0.00 0.00 0.01 0.02 0.02 0.02 0.02 0.02 0.02 0.02 0.02 0.03 0.06
0.02 0.02 0.02 0.01 0.01 0.01 0.02 0.02 0.01 0.02 0.02 0.02 0.02 0.02 0.02 0.02 0.00 0.00 0.00 0.00 0.00 0.01 0.01 0.00 0.00 0.00 0.00 0.00 0.00 0.00 0.00 0.01 0.01 0.02 0.02 0.02 0.01 0.01 0.01 0.02 0.01 0.02 0.03
0.03 0.03 0.03 0.01 0.01 0.01 0.01 0.00 0.00 0.01 0.01 0.01 0.01 0.01 0.02 0.02 0.01 0.01 0.01 0.01 0.00 0.00 0.01 0.01 0.00 0.00 0.00 0.00 0.00 0.00 0.00 0.00 0.00 0.01 0.02 0.02 0.01 0.00 0.01 0.01 0.02 0.02 0.03
0.04 0.04 0.02 0.01 0.01 0.02 0.01 0.00 0.00 0.00 0.00 0.01 0.01 0.01 0.02 0.01 0.00 0.00 0.00 0.00 0.00 0.00 0.01 0.01 0.01 0.01 0.01 0.01 0.00 0.00 0.01 0.00 0.00 0.01 0.01 0.01 0.01 0.01 0.01 0.01 0.01 0.01 0.02
0.03 0.02 0.01 0.01 0.01 0.01 0.01 0.00 0.00 0.00 0.00 0.00 0.00 0.00 0.00 0.00 0.00 0.00 0.00 0.00 0.00 0.00 0.00 0.02 0.01 0.01 0.00 0.00 0.00 0.00 0.00 0.00 0.00 0.01 0.01 0.01 0.01 0.01 0.01 0.01 0.01 0.01 0.01
0.02 0.02 0.01 0.00 0.00 0.00 0.01 0.01 0.01 0.00 0.00 0.00 0.00 0.00 0.00 0.00 0.00 0.00 0.00 0.00 0.00 0.00 0.00 0.01 0.01 0.00 0.00 0.00 0.00 0.00 0.00 0.00 0.00 0.00 0.01 0.01 0.01 0.01 0.01 0.01 0.01 0.01 0.00
0.01 0.00 0.00 0.01 0.00 0.00 0.00 0.01 0.01 0.02 0.02 0.01 0.00 0.00 0.00 0.00 0.00 0.00 0.00 0.00 0.00 0.00 0.00 0.00 0.00 0.00 0.00 0.00 0.00 0.00 0.00 0.00 0.00 0.00 0.00 0.00 0.00 0.01 0.01 0.01 0.01 0.01 0.00
0.00 0.00 0.00 0.00 0.00 0.00 0.00 0.00 0.00 0.01 0.03 0.03 0.02 0.00 0.00 0.00 0.00 0.00 0.00 0.00 0.00 0.00 0.00 0.00 0.00 0.00 0.00 0.00 0.00 0.00 0.00 0.00 0.00 0.00 0.00 0.00 0.00 0.00 0.00 0.00 0.00 0.00 0.00
0.00 0.00 0.00 0.01 0.00 0.00 0.00 0.00 0.00 0.00 0.01 0.02 0.02 0.01 0.00 0.00 0.00 0.00 0.00 0.00 0.00 0.00 0.00 0.00 0.00 0.00 0.00 0.00 0.00 0.00 0.00 0.00 0.00 0.00 0.00 0.00 0.00 0.00 0.00 0.00 0.01 0.01 0.01
0.00 0.00 0.00 0.00 0.00 0.00 0.00 0.00 0.00 0.00 0.00 0.01 0.01 0.00 0.00 0.00 0.00 0.00 0.00 0.00 0.00 0.00 0.00 0.00 0.00 0.00 0.00 0.00 0.00 0.00 0.00 0.00 0.00 0.00 0.00 0.00 0.00 0.00 0.00 0.00 0.00 0.00 0.00
0.00 0.00 0.00 0.00 0.00 0.00 0.00 0.00 0.00 0.00 0.00 0.00 0.00 0.00 0.00 0.00 0.00 0.00 0.00 0.00 0.00 0.00 0.00 0.00 0.00 0.00 0.00 0.00 0.00 0.00 0.00 0.00 0.00 0.00 0.00 0.00 0.00 0.00 0.00 0.00 0.00 0.00 0.00
0.00 0.00 0.00 0.00 0.00 0.00 0.00 0.00 0.00 0.00 0.00 0.01 0.00 0.00 0.00 0.00 0.00 0.00 0.00 0.00 0.00 0.00 0.00 0.00 0.00 0.00 0.00 0.00 0.00 0.00 0.00 0.00 0.00 0.00 0.00 0.00 0.00 0.00 0.00 0.00 0.00 0.00 0.00
0.00 0.00 0.00 0.00 0.00 0.00 0.00 0.00 0.00 0.00 0.00 0.00 0.00 0.00 0.00 0.00 0.00 0.00 0.00 0.00 0.00 0.00 0.00 0.00 0.00 0.00 0.00 0.00 0.00 0.00 0.00 0.00 0.00 0.00 0.00 0.00 0.00 0.00 0.00 0.00 0.00 0.00 0.00
0.00 0.00 0.00 0.00 0.00 0.00 0.00 0.00 0.00 0.00 0.00 0.00 0.00 0.00 0.00 0.00 0.00 0.00 0.00 0.00 0.00 0.00 0.00 0.00 0.00 0.00 0.00 0.00 0.00 0.00 0.00 0.00 0.00 0.00 0.00 0.00 0.00 0.00 0.00 0.00 0.00 0.00 0.00
0.00 0.00 0.00 0.00 0.00 0.00 0.00 0.00 0.00 0.00 0.00 0.00 0.00 0.00 0.00 0.00 0.00 0.00 0.00 0.00 0.00 0.00 0.00 0.00 0.00 0.00 0.00 0.00 0.00 0.00 0.00 0.00 0.00 0.00 0.00 0.00 0.00 0.00 0.00 0.00 0.00 0.00 0.00
MSLP
1013.65 1013.98 1014.41 1014.94 1015.56 1016.25 1016.99 1017.74 1018.47 1019.12 1019.68 1020.12 1020.42 1020.60 1020.67 1020.69 1020.68 1020.68 1020.73 1020.84 1021.01 1021.22 1021.46 1021.69 1021.90 1022.06 1022.18 1022.25 1022.29 1022.32 1022.35 1022.38 1022.43 1022.47 1022.50 1022.51 1022.50 1022.46 1022.41 1022.35 1022.31 1022.30 1022.33
1015.09 1015.36 1015.70 1016.12 1016.63 1017.21 1017.85 1018.51 1019.16 1019.75 1020.27 1020.66 1020.94 1021.09 1021.16 1021.18 1021.17 1021.18 1021.24 1021.36 1021.54 1021.76 1022.00 1022.23 1022.42 1022.56 1022.64 1022.68 1022.68 1022.67 1022.66 1022.65 1022.65 1022.66 1022.66 1022.64 1022.59 1022.51 1022.41 1022.30 1022.21 1022.15 1022.13
1016.48 1016.69 1016.95 1017.28 1017.68 1018.15 1018.68 1019.25 1019.82 1020.35 1020.81 1021.16 1021.41 1021.56 1021.62 1021.63 1021.63 1021.66 1021.73 1021.86 1022.05 1022.27 1022.51 1022.73 1022.92 1023.05 1023.12 1023.14 1023.12 1023.08 1023.05 1023.02 1022.99 1022.98 1022.95 1022.90 1022.82 1022.70 1022.56 1022.40 1022.25 1022.12 1022.04
1017.76 1017.94 1018.14 1018.37 1018.68 1019.05 1019.49 1019.96 1020.46 1020.92 1021.33 1021.66 1021.89 1022.02 1022.08 1022.10 1022.11 1022.14 1022.21 1022.35 1022.54 1022.76 1023.00 1023.22 1023.40 1023.52 1023.59 1023.60 1023.57 1023.53 1023.48 1023.43 1023.40 1023.36 1023.31 1023.24 1023.14 1022.99 1022.81 1022.61 1022.41 1022.22 1022.07
1018.92 1019.07 1019.22 1019.39 1019.61 1019.90 1020.25 1020.65 1021.07 1021.48 1021.85 1022.15 1022.36 1022.49 1022.56 1022.58 1022.59 1022.62 1022.70 1022.83 1023.01 1023.23 1023.46 1023.67 1023.84 1023.96 1024.02 1024.03 1024.00 1023.95 1023.89 1023.84 1023.79 1023.74 1023.68 1023.59 1023.47 1023.31 1023.10 1022.87 1022.62 1022.38 1022.17
1019.94 1020.07 1020.17 1020.29 1020.45 1020.66 1020.94 1021.27 1021.63 1021.99 1022.32 1022.60 1022.81 1022.94 1023.01 1023.04 1023.06 1023.10 1023.17 1023.29 1023.46 1023.66 1023.87 1024.07 1024.23 1024.35 1024.40 1024.41 1024.37 1024.31 1024.24 1024.18 1024.11 1024.04 1023.97 1023.87 1023.73 1023.55 1023.33 1023.08 1022.81 1022.54 1022.29
1020.78 1020.89 1020.97 1021.05 1021.15 1021.31 1021.52 1021.79 1022.09 1022.41 1022.72 1022.98 1023.18 1023.32 1023.40 1023.45 1023.48 1023.51 1023.59 1023.70 1023.85 1024.03 1024.22 1024.40 1024.55 1024.65 1024.70 1024.69 1024.65 1024.57 1024.48 1024.39 1024.30 1024.21 1024.11 1023.99 1023.84 1023.66 1023.44 1023.19 1022.91 1022.63 1022.36
1021.40 1021.51 1021.57 1021.61 1021.68 1021.79 1021.95 1022.17 1022.43 1022.71 1022.99 1023.24 1023.45 1023.60 1023.70 1023.76 1023.80 1023.85 1023.92 1024.03 1024.16 1024.33 1024.50 1024.66 1024.79 1024.87 1024.90 1024.88 1024.81 1024.72 1024.60 1024.47 1024.35 1024.22 1024.09 1023.95 1023.79 1023.60 1023.39 1023.15 1022.89 1022.62 1022.36
1021.80 1021.89 1021.94 1021.97 1022.01 1022.09 1022.21 1022.39 1022.62 1022.87 1023.14 1023.39 1023.60 1023.77 1023.89 1023.98 1024.04 1024.11 1024.18 1024.28 1024.41 1024.55 1024.70 1024.84 1024.95 1025.01 1025.02 1024.98 1024.89 1024.76 1024.61 1024.45 1024.28 1024.11 1023.94 1023.77 1023.59 1023.40 1023.19 1022.97 1022.74 1022.50 1022.26
1021.96 1022.06 1022.11 1022.14 1022.16 1022.22 1022.32 1022.48 1022.68 1022.93 1023.18 1023.44 1023.67 1023.86 1024.01 1024.13 1024.22 1024.31 1024.39 1024.49 1024.61 1024.73 1024.86 1024.97 1025.05 1025.09 1025.08 1025.02 1024.90 1024.74 1024.56 1024.35 1024.14 1023.92 1023.71 1023.51 1023.31 1023.11 1022.90 1022.70 1022.49 1022.28 1022.08
1021.93 1022.04 1022.10 1022.14 1022.17 1022.23 1022.33 1022.49 1022.69 1022.93 1023.19 1023.46 1023.71 1023.94 1024.12 1024.27 1024.39 1024.50 1024.59 1024.68 1024.78 1024.88 1024.98 1025.06 1025.12 1025.13 1025.10 1025.01 1024.87 1024.69 1024.48 1024.24 1023.98 1023.73 1023.48 1023.23 1023.01 1022.79 1022.58 1022.39 1022.20 1022.02 1021.84
1021.75 1021.88 1021.98 1022.05 1022.11 1022.19 1022.31 1022.48 1022.69 1022.95 1023.23 1023.53 1023.81 1024.06 1024.28 1024.47 1024.61 1024.72 1024.81 1024.89 1024.96 1025.03 1025.09 1025.13 1025.15 1025.14 1025.08 1024.98 1024.83 1024.63 1024.40 1024.14 1023.86 1023.57 1023.29 1023.01 1022.75 1022.51 1022.30 1022.10 1021.91 1021.74 1021.58
1021.51 1021.69 1021.82 1021.94 1022.05 1022.17 1022.33 1022.53 1022.77 1023.06 1023.37 1023.69 1024.00 1024.29 1024.53 1024.73 1024.89 1025.00 1025.07 1025.12 1025.15 1025.17 1025.18 1025.17 1025.15 1025.10 1025.02 1024.91 1024.75 1024.56 1024.32 1024.06 1023.77 1023.47 1023.17 1022.87 1022.58 1022.32 1022.08 1021.86 1021.67 1021.49 1021.32
1021.29 1021.51 1021.71 1021.88 1022.05 1022.23 1022.43 1022.67 1022.95 1023.27 1023.61 1023.96 1024.29 1024.60 1024.86 1025.07 1025.22 1025.31 1025.35 1025.35 1025.33 1025.28 1025.22 1025.16 1025.08 1025.00 1024.91 1024.79 1024.64 1024.46 1024.25 1024.00 1023.73 1023.43 1023.12 1022.81 1022.50 1022.21 1021.94 1021.70 1021.48 1021.28 1021.10
1021.15 1021.43 1021.68 1021.92 1022.14 1022.37 1022.63 1022.91 1023.22 1023.56 1023.93 1024.30 1024.65 1024.96 1025.23 1025.42 1025.55 1025.61 1025.60 1025.54 1025.44 1025.32 1025.19 1025.06 1024.94 1024.83 1024.71 1024.60 1024.47 1024.32 1024.15 1023.94 1023.70 1023.43 1023.13 1022.82 1022.50 1022.19 1021.89 1021.61 1021.36 1021.13 1020.91
1021.13 1021.46 1021.76 1022.05 1022.32 1022.60 1022.89 1023.20 1023.53 1023.89 1024.26 1024.63 1024.98 1025.29 1025.54 1025.71 1025.80 1025.81 1025.75 1025.63 1025.46 1025.27 1025.07 1024.88 1024.71 1024.57 1024.45 1024.35 1024.26 1024.15 1024.03 1023.87 1023.68 1023.44 1023.17 1022.87 1022.55 1022.22 1021.89 1021.58 1021.29 1021.02 1020.77
1021.21 1021.57 1021.91 1022.23 1022.54 1022.84 1023.15 1023.47 1023.81 1024.16 1024.52 1024.88 1025.21 1025.49 1025.71 1025.86 1025.91 1025.88 1025.77 1025.59 1025.36 1025.11 1024.86 1024.63 1024.44 1024.28 1024.17 1024.10 1024.04 1023.99 1023.92 1023.82 1023.68 1023.49 1023.24 1022.95 1022.63 1022.29 1021.94 1021.59 1021.26 1020.95 1020.66
1021.35 1021.73 1022.08 1022.42 1022.74 1023.04 1023.35 1023.66 1023.98 1024.31 1024.64 1024.97 1025.27 1025.52 1025.71 1025.82 1025.84 1025.78 1025.63 1025.42 1025.16 1024.89 1024.62 1024.37 1024.17 1024.03 1023.94 1023.89 1023.88 1023.88 1023.87 1023.82 1023.73 1023.58 1023.35 1023.08 1022.75 1022.39 1022.01 1021.63 1021.26 1020.91 1020.59
1021.48 1021.85 1022.21 1022.54 1022.85 1023.14 1023.43 1023.71 1024.00 1024.29 1024.59 1024.87 1025.13 1025.35 1025.51 1025.60 1025.61 1025.54 1025.39 1025.17 1024.92 1024.65 1024.39 1024.16 1023.99 1023.87 1023.82 1023.82 1023.86 1023.90 1023.94 1023.93 1023.87 1023.74 1023.53 1023.25 1022.91 1022.52 1022.11 1021.69 1021.29 1020.90 1020.55
1021.54 1021.90 1022.24 1022.55 1022.84 1023.11 1023.36 1023.61 1023.86 1024.11 1024.37 1024.61 1024.83 1025.03 1025.17 1025.25 1025.27 1025.20 1025.08 1024.90 1024.68 1024.46 1024.25 1024.07 1023.95 1023.89 1023.88 1023.93 1024.01 1024.10 1024.16 1024.18 1024.13 1024.00 1023.78 1023.48 1023.11 1022.69 1022.23 1021.78 1021.34 1020.92 1020.54
1021.50 1021.83 1022.14 1022.43 1022.70 1022.94 1023.17 1023.39 1023.60 1023.81 1024.03 1024.23 1024.43 1024.60 1024.74 1024.83 1024.87 1024.85 1024.77 1024.66 1024.51 1024.36 1024.23 1024.13 1024.08 1024.09 1024.15 1024.24 1024.36 1024.47 1024.55 1024.57 1024.51 1024.36 1024.11 1023.77 1023.36 1022.89 1022.39 1021.89 1021.40 1020.95 1020.54
1021.35 1021.64 1021.93 1022.20 1022.44 1022.67 1022.88 1023.07 1023.26 1023.45 1023.64 1023.82 1024.00 1024.17 1024.31 1024.42 1024.49 1024.53 1024.52 1024.48 1024.43 1024.37 1024.34 1024.33 1024.36 1024.44 1024.56 1024.71 1024.85 1024.98 1025.06 1025.06 1024.98 1024.79 1024.49 1024.10 1023.63 1023.11 1022.56 1022.01 1021.48 1021.00 1020.57
1021.10 1021.36 1021.63 1021.88 1022.12 1022.34 1022.55 1022.74 1022.91 1023.09 1023.26 1023.43 1023.60 1023.77 1023.93 1024.06 1024.18 1024.26 1024.33 1024.38 1024.41 1024.46 1024.52 1024.60 1024.72 1024.87 1025.04 1025.23 1025.39 1025.53 1025.59 1025.57 1025.45 1025.21 1024.87 1024.42 1023.90 1023.32 1022.72 1022.13 1021.57 1021.06 1020.62
1020.80 1021.03 1021.28 1021.54 1021.78 1022.01 1022.22 1022.41 1022.59 1022.77 1022.94 1023.11 1023.28 1023.45 1023.61 1023.77 1023.92 1024.06 1024.18 1024.30 1024.42 1024.54 1024.69 1024.85 1025.05 1025.26 1025.47 1025.69 1025.87 1026.00 1026.05 1026.00 1025.85 1025.57 1025.18 1024.69 1024.12 1023.51 1022.87 1022.25 1021.67 1021.14 1020.68
1020.49 1020.71 1020.95 1021.20 1021.45 1021.69 1021.91 1022.13 1022.32 1022.50 1022.68 1022.85 1023.02 1023.19 1023.36 1023.53 1023.70 1023.86 1024.03 1024.19 1024.37 1024.56 1024.77 1025.00 1025.24 1025.50 1025.75 1025.99 1026.18 1026.31 1026.35 1026.28 1026.10 1025.80 1025.39 1024.87 1024.28 1023.65 1023.00 1022.36 1021.77 1021.24 1020.78
1020.21 1020.41 1020.64 1020.89 1021.15 1021.41 1021.65 1021.87 1022.08 1022.28 1022.46 1022.63 1022.80 1022.97 1023.13 1023.30 1023.47 1023.65 1023.83 1024.02 1024.23 1024.46 1024.70 1024.97 1025.25 1025.54 1025.82 1026.07 1026.27 1026.40 1026.44 1026.37 1026.19 1025.88 1025.47 1024.96 1024.37 1023.74 1023.10 1022.48 1021.89 1021.37 1020.92
Thickness
5614 5615 5616 5616 5615 5614 5613 5612 5611 5609 5609 5608 5608 5608 5608 5606 5606 5605 5605 5606 5605 5604 5602 5601 5599 5599 5599 5599 5597 5594 5591 5588 5583 5580 5577 5572 5568 5564 5561 5559 5557 5554 5549
5601 5602 5602 5602 5602 5602 5601 5601 5600 5600 5600 5599 5599 5599 5598 5597 5597 5597 5597 5596 5595 5593 5592 5591 5590 5589 5587 5585 5584 5582 5579 5576 5572 5568 5565 5561 5558 5555 5552 5550 5548 5545 5541
5589 5590 5590 5590 5590 5590 5590 5590 5590 5590 5590 5589 5589 5589 5588 5588 5588 5587 5587 5586 5585 5583 5581 5580 5577 5575 5573 5572 5571 5569 5567 5564 5560 5557 5554 5551 5549 5546 5543 5541 5539 5535 5533
5579 5579 5578 5578 5579 5579 5579 5579 5580 5580 5580 5580 5580 5579 5579 5578 5577 5577 5576 5576 5574 5572 5570 5568 5565 5562 5560 5559 5559 5555 5554 5551 5549 5546 5543 5540 5537 5535 5532 5529 5527 5525 5524
5569 5569 5568 5568 5568 5568 5569 5569 5570 5570 5570 5570 5570 5569 5568 5565 5562 5562 5565 5565 5563 5561 5559 5556 5553 5550 5548 5546 5545 5542 5540 5538 5536 5533 5531 5528 5525 5523 5520 5519 5516 5515 5515
5560 5559 5559 5559 5559 5558 5559 5559 5560 5560 5560 5559 5558 5556 5555 5552 5549 5550 5551 5553 5553 5551 5549 5547 5544 5541 5538 5535 5534 5531 5528 5526 5524 5522 5520 5517 5515 5513 5511 5510 5507 5506 5504
5551 5551 5551 5551 5551 5551 5551 5550 5550 5550 5550 5549 5546 5544 5542 5539 5539 5540 5540 5541 5542 5540 5539 5538 5538 5532 5528 5526 5525 5523 5520 5517 5515 5513 5511 5509 5508 5506 5504 5502 5501 5499 5499
5544 5544 5543 5543 5543 5542 5542 5541 5541 5540 5540 5539 5538 5535 5533 5530 5529 5530 5530 5532 5532 5531 5529 5527 5524 5519 5516 5514 5515 5516 5515 5513 5510 5507 5507 5505 5503 5500 5498 5497 5496 5497 5498
5538 5537 5536 5536 5536 5534 5533 5533 5533 5532 5532 5531 5530 5528 5524 5520 5520 5520 5520 5523 5524 5522 5519 5515 5514 5510 5506 5506 5508 5507 5507 5506 5505 5502 5501 5500 5499 5497 5494 5491 5492 5492 5492
5532 5531 5530 5529 5529 5528 5526 5526 5526 5526 5525 5524 5522 5520 5517 5513 5511 5512 5513 5516 5515 5513 5510 5506 5503 5501 5499 5498 5498 5498 5497 5496 5496 5497 5497 5497 5497 5495 5493 5489 5488 5487 5487
5528 5526 5525 5524 5523 5522 5520 5520 5520 5519 5518 5517 5515 5512 5510 5507 5504 5505 5504 5505 5505 5505 5503 5500 5496 5494 5493 5492 5491 5491 5489 5488 5489 5492 5493 5494 5494 5493 5492 5489 5488 5486 5484
5522 5521 5520 5519 5519 5517 5515 5514 5514 5513 5512 5510 5508 5506 5503 5501 5499 5497 5497 5496 5495 5496 5495 5493 5490 5489 5488 5487 5487 5486 5485 5485 5487 5489 5489 5489 5489 5488 5488 5488 5488 5487 5486
5517 5516 5515 5514 5512 5511 5510 5509 5509 5508 5507 5506 5504 5501 5498 5495 5492 5491 5490 5490 5489 5488 5488 5486 5486 5485 5484 5483 5482 5482 5481 5482 5483 5483 5483 5484 5485 5486 5486 5486 5486 5486 5486
5512 5510 5509 5508 5507 5506 5505 5505 5503 5502 5501 5500 5499 5496 5493 5490 5487 5485 5486 5485 5484 5483 5483 5483 5483 5482 5480 5479 5479 5480 5480 5480 5479 5479 5479 5481 5482 5482 5483 5483 5483 5483 5483
5508 5507 5506 5505 5502 5499 5495 5492 5491 5487 5487 5490 5490 5489 5487 5483 5477 5476 5477 5478 5476 5475 5475 5479 5481 5482 5481 5480 5480 5480 5479 5478 5476 5475 5476 5476 5477 5478 5479 5480 5480 5481 5481
5506 5505 5504 5502 5499 5497 5493 5487 5482 5482 5480 5481 5480 5480 5478 5476 5475 5474 5474 5474 5474 5473 5473 5477 5479 5478 5477 5476 5476 5475 5475 5473 5472 5471 5472 5472 5473 5474 5475 5477 5478 5479 5479
5504 5503 5503 5501 5499 5496 5493 5489 5484 5479 5477 5477 5477 5476 5476 5474 5474 5473 5473 5473 5474 5473 5473 5477 5477 5475 5474 5473 5472 5471 5470 5470 5469 5469 5469 5469 5470 5471 5473 5474 5476 5477 5478
5502 5500 5500 5499 5498 5496 5494 5492 5489 5486 5482 5480 5476 5475 5475 5474 5474 5473 5472 5472 5477 5478 5477 5477 5476 5474 5472 5471 5470 5468 5467 5467 5467 5467 5467 5468 5469 5470 5471 5473 5474 5476 5477
5502 5501 5500 5500 5499 5497 5496 5495 5492 5489 5487 5484 5481 5478 5476 5475 5474 5475 5473 5475 5480 5480 5479 5477 5475 5473 5471 5470 5469 5468 5467 5466 5466 5466 5466 5467 5468 5469 5470 5472 5474 5476 5478
5501 5498 5499 5500 5500 5498 5497 5496 5494 5491 5490 5488 5486 5485 5482 5479 5480 5481 5480 5481 5481 5480 5477 5475 5474 5473 5471 5470 5468 5467 5466 5466 5465 5465 5465 5466 5467 5469 5470 5473 5475 5477 5479
5505 5501 5499 5500 5501 5500 5499 5498 5496 5495 5493 5492 5490 5488 5485 5487 5488 5487 5486 5484 5482 5479 5476 5474 5475 5474 5471 5469 5467 5465 5465 5464 5463 5462 5462 5464 5467 5469 5471 5474 5476 5479 5481
5510 5508 5505 5504 5504 5502 5501 5500 5500 5498 5497 5496 5493 5491 5489 5489 5492 5490 5488 5486 5483 5480 5478 5475 5475 5473 5469 5467 5465 5465 5463 5461 5459 5458 5459 5462 5466 5469 5472 5475 5478 5480 5482
5515 5513 5510 5509 5507 5503 5503 5504 5503 5502 5501 5500 5500 5498 5496 5495 5495 5492 5490 5487 5485 5482 5480 5477 5476 5473 5469 5467 5466 5463 5460 5457 5456 5457 5458 5461 5465 5469 5473 5476 5479 5481 5483
5521 5519 5516 5514 5512 5510 5509 5508 5507 5506 5505 5504 5503 5502 5500 5497 5496 5493 5492 5489 5487 5485 5482 5479 5477 5474 5471 5469 5467 5463 5460 5458 5458 5458 5459 5460 5464 5470 5474 5477 5480 5482 5483
5528 5525 5522 5520 5518 5516 5514 5513 5511 5510 5509 5508 5507 5505 5504 5502 5500 5498 5495 5493 5490 5487 5485 5482 5479 5476 5473 5470 5467 5464 5462 5461 5461 5460 5461 5463 5466 5471 5475 5478 5480 5482 5483
5535 5532 5529 5526 5524 5522 5519 5517 5516 5514 5513 5512 5511 5509 5507 5506 5504 5501 5498 5496 5493 5491 5487 5485 5482 5478 5475 5472 5469 5467 5465 5464 5464 5464 5464 5466 5469 5473 5475 5477 5480 5482 5483